Morristown, NJ

8:30 AM EDT on June 21, 2018 (GMT -0400)
Morristown Municipal

Weather History for KMMU - October, 2017

Change the Weather History Date:

Saturday, October 28, 2017

  Actual Average Record
Temperature  
Mean Temperature 51 °F -  
Max Temperature 69 °F 61 °F 84 °F (1963)
Min Temperature 33 °F 37 °F 13 °F (1936)
Degree Days  
Heating Degree Days 14    
Growing Degree Days 1 (Base 50)    
Moisture  
Dew Point 42 °F    
Average Humidity 85    
Maximum Humidity 100    
Minimum Humidity 31    
Precipitation  
Precipitation 0.00 in - - ()
Sea Level Pressure  
Sea Level Pressure 30.01 in    
Wind  
Wind Speed 1 mph (South)    
Max Wind Speed 14 mph    
Max Gust Speed 21 mph    
Visibility 9 miles    
Events      
Averages and records for this station are not official NWS values.
T = Trace of Precipitation, MM = Missing Value Source: NWS Daily Summary

Daily Weather History Graph

Daily Weather History Graph

Search for Another Location

Airport or City:

Astronomy

Oct. 28, 2017 Rise Set
Actual Time 7:23 AM EDT 5:58 PM EDT
Civil Twilight 6:55 AM EDT 6:26 PM EDT
Nautical Twilight 6:23 AM EDT 6:58 PM EDT
Astronomical Twilight 5:51 AM EDT 7:30 PM EDT
Moon 2:35 PM EDT (10/28) 12:07 AM EDT (10/28)
Length of Visible Light 11h 31m
Length of Day
10h 34m
First Quarter, 57% of the Moon is Illuminated
Oct 28
First Quarter
Nov 4
Full
Nov 10
Last Quarter
Nov 18
New
Nov 26
First Quarter

Hourly Weather History & Observations

Time (EDT) Temp. Dew Point Humidity Pressure Visibility Wind Dir Wind Speed Gust Speed Precip Events Conditions
12:15 AM 37.4 °F 37.4 °F 100% 30.08 in 10.0 mi Calm Calm - N/A   Clear
12:35 AM 37.4 °F 37.4 °F 100% 30.08 in 10.0 mi Calm Calm - N/A   Clear
12:55 AM 37.4 °F 37.4 °F 100% 30.08 in 10.0 mi Calm Calm - N/A   Clear
1:15 AM 37.4 °F 35.6 °F 93% 30.08 in 10.0 mi Calm Calm - N/A   Clear
1:35 AM 37.4 °F 37.4 °F 100% 30.08 in 10.0 mi Calm Calm - N/A   Clear
1:55 AM 37.4 °F 37.4 °F 100% 30.07 in 10.0 mi Calm Calm - N/A   Clear
2:15 AM 37.4 °F 37.4 °F 100% 30.07 in 10.0 mi Calm Calm - N/A   Clear
2:35 AM 35.6 °F 35.6 °F 100% 30.07 in 7.0 mi Calm Calm - N/A   Clear
2:55 AM 35.6 °F 35.6 °F 100% 30.07 in 7.0 mi Calm Calm - N/A   Clear
3:15 AM 35.6 °F 35.6 °F 100% 30.07 in 2.5 mi Calm Calm - N/A   Clear
3:35 AM 35.6 °F 35.6 °F 100% 30.06 in 10.0 mi Calm Calm - N/A   Clear
3:55 AM 35.6 °F 35.6 °F 100% 30.06 in 4.0 mi Calm Calm - N/A   Clear
4:15 AM 35.6 °F 35.6 °F 100% 30.05 in 7.0 mi Calm Calm - N/A   Clear
4:35 AM 35.6 °F 35.6 °F 100% 30.05 in 1.8 mi Calm Calm - N/A   Mist
4:55 AM 35.6 °F 35.6 °F 100% 30.06 in 4.0 mi Calm Calm - N/A   Clear
5:15 AM 33.8 °F 33.8 °F 100% 30.05 in 10.0 mi Calm Calm - N/A   Clear
5:35 AM 35.6 °F 35.6 °F 100% 30.06 in 10.0 mi Calm Calm - N/A   Clear
5:55 AM 33.8 °F 33.8 °F 100% 30.06 in 10.0 mi Calm Calm - N/A   Clear
6:15 AM 33.8 °F 33.8 °F 100% 30.05 in 10.0 mi Calm Calm - N/A   Clear
6:35 AM 33.8 °F 33.8 °F 100% 30.05 in 10.0 mi Calm Calm - N/A   Clear
6:45 AM 35.6 °F 33.8 °F 93% 30.05 in 10.0 mi Calm Calm - N/A   Clear
7:45 AM 35.6 °F 35.6 °F 100% 30.06 in 10.0 mi Calm Calm - N/A   Clear
8:45 AM 41.0 °F 39.2 °F 93% 30.07 in 10.0 mi Calm Calm - N/A   Clear
9:45 AM 48.2 °F 46.4 °F 93% 30.05 in 10.0 mi Calm Calm - N/A   Scattered Clouds
10:51 AM 57.2 °F 48.2 °F 72% 30.03 in 10.0 mi Calm Calm - N/A   Scattered Clouds
11:45 AM 66.2 °F 46.4 °F 49% 30.01 in 10.0 mi Calm Calm - N/A   Scattered Clouds
12:45 PM 68.0 °F 44.6 °F 43% 29.98 in 10.0 mi SSW 10.4 mph 17.3 mph N/A   Scattered Clouds
1:45 PM 68.0 °F 42.8 °F 40% 29.96 in 10.0 mi SSW 6.9 mph 20.7 mph N/A   Scattered Clouds
2:45 PM 69.8 °F 37.4 °F 31% 29.93 in 10.0 mi SSW 9.2 mph 20.7 mph N/A   Scattered Clouds
3:50 PM 69.8 °F 37.4 °F 31% 29.91 in 10.0 mi SSW 13.8 mph 17.3 mph N/A   Scattered Clouds
4:45 PM 68.0 °F 41.0 °F 37% 29.91 in 15.0 mi South 9.2 mph - N/A   Scattered Clouds
5:45 PM 64.4 °F 44.6 °F 49% 29.91 in 15.0 mi South 6.9 mph - N/A   Scattered Clouds
6:45 PM 62.6 °F 53.6 °F 72% 29.91 in 10.0 mi South 6.9 mph - N/A   Partly Cloudy
6:50 PM 62.6 °F 53.6 °F 72% 29.91 in 10.0 mi South 6.9 mph - N/A   Partly Cloudy
7:45 PM 62.6 °F 53.6 °F 72% 29.92 in 10.0 mi South 5.8 mph - N/A   Partly Cloudy
8:45 PM 60.8 °F 53.6 °F 77% 29.92 in 10.0 mi South 4.6 mph - N/A   Partly Cloudy
9:45 PM 53.6 °F 51.8 °F 94% 29.92 in 10.0 mi Calm Calm - N/A   Partly Cloudy
10:35 PM 57.2 °F 53.6 °F 88% 29.91 in 10.0 mi Calm Calm - N/A   Overcast
10:55 PM 55.4 °F 53.6 °F 94% 29.91 in 10.0 mi Calm Calm - N/A   Overcast
11:15 PM 55.4 °F 53.6 °F 94% 29.91 in 10.0 mi Calm Calm - N/A   Mostly Cloudy
11:35 PM 55.4 °F 53.6 °F 94% 29.90 in 10.0 mi Calm Calm - N/A   Mostly Cloudy
11:55 PM 55.4 °F 53.6 °F 94% 29.90 in 10.0 mi Calm Calm - N/A   Overcast